CW7625 Weather Reports


Display with metric or nautical units.
time (UTC)temp
F
wind
direction
speed
MPH
gust
MPH
rain 1hr
in
rain 24hr
in
rain mn
in
humidity
%
barometer
mb
20260901115110 70 82 0.0 0.0 0.00 0.00 0.00 90 1015.3
20260901114110 70 82 0.0 0.0 0.00 0.00 0.00 90 1015.2
20260901113110 70 82 0.0 0.0 0.00 0.00 0.00 89 1015.2
20260901112111 71 82 0.0 0.0 0.00 0.00 0.00 89 1015.2
20260901110110 71 82 0.0 0.0 0.00 0.00 0.00 89 1014.9
20260901103110 71 82 0.0 0.0 0.00 0.00 0.00 89 1014.8
20260901102110 71 82 0.0 0.0 0.00 0.00 0.00 89 1014.8
20260901101110 72 82 0.0 0.0 0.00 0.00 0.00 89 1014.8
20260901100111 72 82 0.0 0.0 0.00 0.00 0.00 89 1014.8
20260901094111 72 82 0.0 0.0 0.00 0.00 0.00 88 1014.9
20260901093111 72 82 0.0 0.0 0.00 0.00 0.00 88 1014.8
20260901092111 72 82 0.0 0.0 0.00 0.00 0.00 88 1014.8
20260901091111 72 82 0.0 0.0 0.00 0.00 0.00 87 1014.7
20260901090111 72 82 0.0 0.0 0.00 0.00 0.00 87 1014.7
20260901085110 72 82 0.0 0.0 0.00 0.00 0.00 87 1014.8
20260901084110 73 82 0.0 0.0 0.00 0.00 0.00 87 1014.9
20260901083111 73 82 0.0 0.0 0.00 0.00 0.00 87 1014.8
20260901082111 73 82 0.0 0.0 0.00 0.00 0.00 86 1014.9
20260901081110 73 82 0.0 0.0 0.00 0.00 0.00 86 1014.8
20260901080110 73 82 0.0 0.0 0.00 0.00 0.00 86 1014.8
20260901074110 74 82 0.0 0.0 0.00 0.00 0.00 85 1014.7
20260901073111 74 82 0.0 0.0 0.00 0.00 0.00 85 1014.6
20260901065110 75 82 0.0 0.0 0.00 0.00 0.00 83 1014.5
20260901064111 75 82 0.0 0.0 0.00 0.00 0.00 83 1014.4
20260901063111 75 82 0.0 0.0 0.00 0.00 0.00 82 1014.4
20260901062111 75 82 0.0 0.0 0.00 0.00 0.00 82 1014.4
20260901060110 76 82 0.0 0.0 0.00 0.00 0.00 81 1014.3
20260901055111 76 82 0.0 0.0 0.00 0.00 0.00 81 1014.2
20260901054111 76 82 0.0 0.0 0.00 0.00 0.00 81 1014.1
20260901051111 76 82 0.0 0.0 0.00 0.00 0.00 80 1014.0
20260901050111 76 82 0.0 0.0 0.00 0.00 0.00 80 1013.9
20260901045111 77 82 0.0 0.0 0.00 0.00 0.00 79 1013.7
20260901044111 77 82 0.0 0.0 0.00 0.00 0.00 78 1013.7
20260901042111 77 82 0.0 0.0 0.00 0.00 0.00 77 1013.7
20260901040111 77 82 0.0 0.0 0.00 0.00 0.00 76 1013.6
20260901035111 78 82 0.0 0.0 0.00 0.00 0.00 77 1013.5
20260901034111 78 82 0.0 0.0 0.00 0.00 0.00 76 1013.6
20260901032111 78 82 0.0 0.0 0.00 0.00 0.00 76 1013.4
20260901031111 79 82 0.0 0.0 0.00 0.00 0.00 75 1013.4
20260901030110 79 82 0.0 0.0 0.00 0.00 0.00 74 1013.3
20260901025111 79 82 0.0 0.0 0.00 0.00 0.00 73 1013.2
20260901024111 80 82 0.0 0.0 0.00 0.00 0.00 72 1013.0
20260901023111 80 82 0.0 0.0 0.00 0.00 0.00 71 1013.0
20260901022111 81 82 0.0 0.0 0.00 0.00 0.00 70 1012.9
20260901020111 82 82 0.0 0.0 0.00 0.00 0.00 67 1012.7
20260901015111 83 82 0.0 0.0 0.00 0.00 0.00 66 1012.6
20260901014111 84 82 0.0 0.0 0.00 0.00 0.00 64 1012.5
20260901013111 85 82 0.0 0.0 0.00 0.00 0.00 62 1012.4
20260901012111 86 82 0.0 0.0 0.00 0.00 0.00 60 1012.4
20260901011111 88 82 0.0 0.0 0.00 0.00 0.00 57 1012.5
20260901010111 89 82 0.0 0.0 0.00 0.00 0.00 56 1012.4
20260901005111 90 82 0.0 0.0 0.00 0.00 0.00 52 1012.3
20260901004111 92 82 0.0 0.0 0.00 0.00 0.00 50 1012.1
20260901003111 93 82 0.0 0.0 0.00 0.00 0.00 47 1012.0
20260901002111 94 82 0.0 2.0 0.00 0.00 0.00 46 1012.0
20260901000111 96 81 1.0 3.0 0.00 0.00 0.00 43 1012.0
20260831235111 96 230 2.0 4.0 0.00 0.00 0.00 43 1012.0
20260831234111 96 60 2.0 7.0 0.00 0.00 0.00 44 1012.0
20260831233111 97 155 1.0 6.0 0.00 0.00 0.00 42 1012.0
20260831232111 97 47 4.0 4.0 0.00 0.00 0.00 42 1012.0
20260831231111 97 234 2.0 9.0 0.00 0.00 0.00 41 1011.9
20260831230111 98 103 2.0 8.0 0.00 0.00 0.00 42 1011.9
20260831225111 98 250 5.0 8.0 0.00 0.00 0.00 41 1012.0
20260831224111 98 223 1.0 11.0 0.00 0.00 0.00 41 1012.0
20260831223111 99 63 11.0 11.0 0.00 0.00 0.00 41 1012.1
20260831222111 99 309 2.0 11.0 0.00 0.00 0.00 41 1012.2
20260831221111 99 103 2.0 7.0 0.00 0.00 0.00 41 1012.2
20260831220111 99 155 2.0 9.0 0.00 0.00 0.00 39 1012.2
20260831215111 99 65 3.0 8.0 0.00 0.00 0.00 41 1012.3
20260831214111 99 78 0.0 7.0 0.00 0.00 0.00 42 1012.4
20260831213111 100 82 3.0 10.0 0.00 0.00 0.00 41 1012.4
20260831212111 100 317 3.0 7.0 0.00 0.00 0.00 40 1012.4
20260831211111 100 193 2.0 4.0 0.00 0.00 0.00 39 1012.5
20260831210111 99 101 1.0 8.0 0.00 0.00 0.00 42 1012.7
20260831205111 99 240 0.0 4.0 0.00 0.00 0.00 42 1012.9
20260831204111 99 135 2.0 6.0 0.00 0.00 0.00 43 1013.1
20260831203111 99 229 4.0 7.0 0.00 0.00 0.00 43 1013.2
20260831202111 98 197 1.0 7.0 0.00 0.00 0.00 44 1013.3
20260831201111 98 65 5.0 6.0 0.00 0.00 0.00 48 1013.4
20260831200112 97 42 1.0 6.0 0.00 0.00 0.00 45 1013.6
20260831195111 97 67 2.0 7.0 0.00 0.00 0.00 45 1013.8
20260831194111 96 29 3.0 8.0 0.00 0.00 0.00 46 1013.9
20260831192111 95 90 1.0 4.0 0.00 0.00 0.00 47 1014.1
20260831191111 95 74 4.0 4.0 0.00 0.00 0.00 47 1014.3
20260831190111 96 77 1.0 6.0 0.00 0.00 0.00 47 1014.3
20260831185111 98 300 3.0 12.0 0.00 0.00 0.00 44 1014.4
20260831184111 98 217 1.0 11.0 0.00 0.00 0.00 48 1014.7
20260831183111 96 68 3.0 5.0 0.00 0.00 0.00 50 1014.6
20260831182111 96 321 3.0 4.0 0.00 0.00 0.00 48 1014.8
20260831181111 95 227 1.0 11.0 0.00 0.00 0.00 49 1015.0
20260831180111 96 119 1.0 7.0 0.00 0.00 0.00 49 1015.0
20260831175111 95 325 2.0 9.0 0.00 0.00 0.00 49 1015.3
20260831174111 95 95 2.0 7.0 0.00 0.00 0.00 50 1015.4
20260831173111 94 321 4.0 7.0 0.00 0.00 0.00 51 1015.7
20260831172111 95 291 2.0 9.0 0.00 0.00 0.00 49 1015.9
20260831171111 94 63 2.0 5.0 0.00 0.00 0.00 50 1016.1
20260831170111 93 223 0.0 5.0 0.00 0.00 0.00 49 1016.2
20260831165111 93 331 0.0 5.0 0.00 0.00 0.00 51 1016.2
20260831164111 93 215 1.0 5.0 0.00 0.00 0.00 53 1016.4
20260831163111 92 220 3.0 5.0 0.00 0.00 0.00 54 1016.3
20260831162111 92 298 1.0 5.0 0.00 0.00 0.00 55 1016.3
20260831161111 90 322 2.0 5.0 0.00 0.00 0.00 58 1016.4
20260831154111 87 249 2.0 4.0 0.00 0.00 0.00 68 1016.3
20260831151111 85 230 0.0 2.0 0.00 0.00 0.00 70 1016.1
20260831145112 85 230 0.0 2.0 0.00 0.00 0.00 71 1016.2
20260831144111 85 230 2.0 3.0 0.00 0.00 0.00 70 1016.1
20260831143112 85 268 1.0 3.0 0.00 0.00 0.00 70 1016.0
20260831142111 85 196 1.0 2.0 0.00 0.00 0.00 69 1016.0
20260831141111 85 196 2.0 3.0 0.00 0.00 0.00 69 1015.9
20260831140112 84 67 0.0 4.0 0.00 0.00 0.00 74 1015.8
20260831135111 82 111 0.0 3.0 0.00 0.00 0.00 77 1015.7
20260831134111 80 111 2.0 2.0 0.00 0.00 0.00 79 1015.6
20260831133111 78 111 0.0 1.0 0.00 0.00 0.00 81 1015.5
20260831132112 77 111 0.0 0.0 0.00 0.00 0.00 84 1015.4
20260831131112 77 111 0.0 1.0 0.00 0.00 0.00 85 1015.3
20260831130111 75 111 0.0 1.0 0.00 0.00 0.00 86 1015.1
20260831125111 74 111 0.0 0.0 0.00 0.00 0.00 88 1015.1
20260831124111 72 111 0.0 0.0 0.00 0.00 0.00 89 1014.8
20260831122112 71 111 0.0 0.0 0.00 0.00 0.00 88 1014.5
20260831121112 71 111 0.0 0.0 0.00 0.00 0.00 88 1014.3
20260831120112 71 111 0.0 0.0 0.00 0.00 0.00 88 1014.2